[[{"header":{"parameterUnit":"m.s-1","parameterCategory":2,"la1":30.2991,"la2":30.254,"lo1":-89.0895,"lo2":-89.0444,"dy":0.0017,"dx":0.0017,"nx":28,"ny":28,"refTime":"2024-03-13T03:00:00:Z","depth":"0","parameterNumber":2,"parameterNumberName":"U-component_of_CURRENTS"},"data":[0,0,0,0,0,0,0,0,0,0,0,0,0,0,0,0,0,0,0,0,0,0,0,0,0,0,0,0,0,0,0,0,0,0,0,0,0,0,0,0,0,0,0,0,0,0,0,0,0,0,0,0,0,0,0,0,0,0,-0.299,-0.2991,0,-0.3055,-0.3056,-0.3056,-0.3014,-0.3012,-0.301,-0.3009,-0.3,-0.3002,-0.3003,0,0,0,0,0,0,0,0,0,0,0,0,0,-0.2849,-0.2851,-0.299,-0.2991,-0.2992,-0.3055,-0.3056,-0.3056,-0.3014,-0.3012,-0.301,-0.3008,-0.3,-0.3001,-0.3003,0,0,0,0,0,0,0,0,0,0,0,0,0,-0.2909,-0.2852,-0.299,-0.298,-0.298,-0.3055,-0.3056,-0.3056,-0.3014,-0.3012,-0.3009,-0.3007,-0.2999,-0.3001,-0.3003,-0.3068,0,0,-0.301,-0.3011,0,0,0,0,0,0,0,0,-0.2906,-0.2914,-0.2981,-0.2981,-0.2981,-0.3026,-0.3003,-0.3058,-0.3015,-0.2999,-0.3009,-0.3006,-0.3006,-0.3007,-0.3022,-0.3068,-0.3067,-0.301,-0.3011,-0.3012,-0.3013,0,0,0,0,0,0,0,-0.2902,-0.2911,-0.3013,-0.2982,-0.2983,-0.298,-0.2985,-0.3013,-0.3013,-0.3,-0.2998,-0.301,-0.3004,-0.3021,-0.3022,-0.3067,-0.301,-0.3012,-0.3013,-0.3014,-0.316,-0.3163,0,0,0,0,0,0,-0.2901,-0.2908,-0.3011,-0.3015,-0.2939,-0.2985,-0.299,-0.3012,-0.3014,-0.3013,-0.3012,-0.3008,-0.3018,-0.3019,-0.3021,-0.3052,-0.3012,-0.3014,-0.3015,-0.3158,-0.3161,-0.3164,0,0,0,0,0,0,-0.2898,-0.2911,-0.3008,-0.2964,-0.2976,-0.299,-0.3015,-0.3015,-0.3021,-0.3024,-0.3021,-0.3017,-0.3016,-0.3018,-0.306,-0.3053,-0.3015,-0.3017,-0.3155,-0.3159,-0.3162,-0.3143,0,0,0,0,0,0,-0.2894,-0.2909,-0.2922,-0.2965,-0.2979,-0.3053,-0.3017,-0.3018,-0.3034,-0.3029,-0.3028,-0.3025,-0.3014,-0.3057,-0.3062,-0.3055,-0.3018,-0.3151,-0.3156,-0.3161,-0.314,-0.3146,-0.3151,0,0,0,0,0,-0.2889,-0.2919,-0.2922,-0.2934,-0.2997,-0.3055,-0.3063,-0.3061,-0.3037,-0.3053,-0.3061,-0.3024,-0.3091,-0.3062,-0.3067,-0.3059,-0.3149,-0.3155,-0.3161,-0.3138,-0.3145,-0.3151,0,0,0,0,0,0,-0.2861,-0.292,-0.2923,-0.2967,-0.3008,-0.3048,-0.3064,-0.3068,-0.3089,-0.3077,-0.3066,-0.3067,-0.3097,-0.3107,-0.3074,-0.3125,-0.3112,-0.3119,-0.3093,-0.3099,-0.3104,-0.3079,-0.302,0,0,0,0,0,-0.2865,-0.2899,-0.2954,-0.2986,-0.3009,-0.3038,-0.3058,-0.3065,-0.3092,-0.3097,-0.3101,-0.3114,-0.3133,-0.3136,-0.3162,-0.3198,-0.3177,-0.3201,-0.3206,-0.3209,-0.3199,-0.3166,-0.3165,-0.3183,-0.3183,-0.3183,0,0,-0.2859,-0.2898,-0.2914,-0.2982,-0.3009,-0.3049,-0.3042,-0.3082,-0.31,-0.3096,-0.312,-0.3136,-0.3153,-0.3183,-0.3197,-0.3182,-0.3202,-0.3217,-0.3219,-0.3206,-0.3172,-0.3169,-0.3167,-0.3187,-0.3187,-0.3186,0,0,-0.287,-0.2905,-0.2936,-0.2978,-0.3032,-0.3058,-0.3071,-0.312,-0.3123,-0.3171,-0.3162,-0.3177,-0.3223,-0.3216,-0.3221,-0.3281,-0.3235,-0.3297,-0.3286,-0.3255,-0.3251,-0.3248,-0.3234,-0.3229,-0.3291,-0.3291,-0.3291,0,-0.2857,-0.2908,-0.2953,-0.2998,-0.3024,-0.3061,-0.3095,-0.3122,-0.3174,-0.3177,-0.3177,-0.322,-0.3229,-0.3236,-0.3256,-0.3281,-0.3268,-0.3247,-0.3254,-0.325,-0.3246,-0.3233,-0.3227,-0.329,-0.329,-0.329,-0.329,0,-0.2894,-0.2933,-0.2957,-0.3019,-0.3058,-0.3097,-0.3145,-0.3172,-0.3182,-0.3199,-0.3219,-0.3239,-0.3252,-0.3264,-0.3276,-0.3264,-0.3266,-0.3261,-0.3217,-0.3241,-0.3229,-0.3223,-0.329,-0.329,-0.329,-0.329,0,0,-0.2853,-0.296,-0.2963,-0.299,-0.3069,-0.3103,-0.3142,-0.3182,-0.3193,-0.3222,-0.3227,-0.3252,-0.3247,-0.3256,-0.3263,-0.324,-0.3211,-0.3242,-0.324,-0.3192,-0.3152,-0.3111,-0.3101,-0.3197,-0.3196,-0.3195,-0.3157,0,-0.2857,-0.2929,-0.2985,-0.3036,-0.3072,-0.3122,-0.3158,-0.3196,-0.322,-0.3244,-0.3236,-0.3256,-0.3248,-0.3255,-0.3227,-0.3232,-0.3195,-0.3223,-0.3168,-0.3167,-0.3095,-0.3092,-0.2977,-0.2929,-0.3151,-0.315,-0.315,0,-0.286,-0.2909,-0.2962,-0.304,-0.306,-0.3093,-0.3138,-0.3178,-0.3217,-0.3239,-0.3237,-0.3251,-0.3239,-0.3229,-0.3184,-0.3204,-0.3171,-0.3157,-0.3155,-0.3112,-0.3114,-0.2943,-0.291,-0.2892,-0.3141,-0.3142,-0.3142,0,-0.2789,-0.2884,-0.2918,-0.2948,-0.3048,-0.3063,-0.3102,-0.3156,-0.3184,-0.3224,-0.3246,-0.3237,-0.3235,-0.3192,-0.317,-0.3176,-0.3116,-0.3119,-0.304,-0.3038,-0.2926,-0.2915,-0.283,-0.3051,-0.3051,-0.3052,-0.3052,0,-0.2763,-0.2784,-0.2885,-0.2902,-0.2931,-0.3015,-0.3041,-0.3086,-0.3151,-0.3174,-0.3221,-0.3229,-0.3222,-0.3199,-0.3166,-0.3087,-0.3101,-0.3027,-0.3014,-0.2923,-0.2913,-0.2882,-0.2912,-0.305,-0.305,-0.3051,-0.3051,0,-0.2665,-0.2745,-0.2776,-0.2869,-0.2897,-0.2902,-0.2995,-0.302,-0.3098,-0.3128,-0.3142,-0.3212,-0.3191,-0.3174,-0.3123,-0.3074,-0.2958,-0.2974,-0.2881,-0.2857,-0.2768,-0.2802,-0.2687,-0.2612,-0.2882,-0.288,-0.2879,0,-0.2619,-0.2629,-0.2712,-0.2729,-0.2763,-0.2805,-0.2843,-0.2957,-0.2994,-0.3102,-0.3106,-0.3133,-0.3117,-0.3055,-0.2986,-0.2906,-0.2886,-0.2757,-0.2736,-0.2732,-0.2762,-0.276,-0.2706,-0.2594,-0.2591,-0.2588,-0.2586,0,-0.2504,-0.2531,-0.2562,-0.2593,-0.263,-0.2671,-0.2732,-0.2764,-0.2894,-0.2939,-0.2984,-0.2988,-0.2973,-0.2865,-0.2794,-0.2727,-0.2691,-0.2697,-0.2696,-0.2527,-0.2513,-0.2445,-0.2681,-0.2561,-0.2563,-0.2565,-0.2566,-0.2567,-0.239,-0.2377,-0.2418,-0.243,-0.2477,-0.2492,-0.2469,-0.2566,-0.2601,-0.2632,-0.2761,-0.2735,-0.2744,-0.2636,-0.2591,-0.2471,-0.2506,-0.2386,-0.243,-0.243,-0.2341,-0.2536,-0.2404,-0.2405,-0.2407,-0.2408,-0.2409,0,-0.2234,-0.2243,-0.2254,-0.2263,-0.2239,-0.2317,-0.2361,-0.232,-0.23,-0.24,-0.2409,-0.2438,-0.2358,-0.2388,-0.2313,-0.2225,-0.216,-0.2176,-0.2139,-0.2096,-0.2253,-0.2224,-0.204,-0.2041,-0.2041,-0.2041,-0.2041,-0.2041,-0.2155,-0.2108,-0.2114,-0.2011,-0.2016,-0.1928,-0.1909,-0.1888,-0.1923,-0.1918,-0.1973,-0.2075,-0.213,-0.2299,-0.221,-0.2118,-0.206,-0.1986,-0.2019,-0.215,-0.2173,-0.2195,-0.2171,-0.198,-0.198,-0.1758,-0.1756,-0.1756]},{"header":{"parameterUnit":"m.s-1","parameterCategory":2,"la1":30.2991,"la2":30.254,"lo1":-89.0895,"lo2":-89.0444,"dy":0.0017,"dx":0.0017,"nx":28,"ny":28,"refTime":"2024-03-13T03:00:00:Z","depth":"0","parameterNumber":3,"parameterNumberName":"V-component_of_CURRENTS"},"data":[0,0,0,0,0,0,0,0,0,0,0,0,0,0,0,0,0,0,0,0,0,0,0,0,0,0,0,0,0,0,0,0,0,0,0,0,0,0,0,0,0,0,0,0,0,0,0,0,0,0,0,0,0,0,0,0,0,0,-0.0179,-0.0178,0,-0.0071,-0.007,-0.0068,0.0006,0.0006,0.0007,0.0007,0.0138,0.0142,0.0145,0,0,0,0,0,0,0,0,0,0,0,0,0,-0.0247,-0.0246,-0.0179,-0.0178,-0.0177,-0.0071,-0.007,-0.0068,0.0006,0.0006,0.0007,0.0007,0.0137,0.0141,0.0145,0,0,0,0,0,0,0,0,0,0,0,0,0,-0.0184,-0.0246,-0.0179,-0.0129,-0.0123,-0.0072,-0.007,-0.0068,0.0006,0.0006,0.0007,0.0007,0.0136,0.0141,0.0145,0.0164,0,0,0.016,0.0162,0,0,0,0,0,0,0,0,-0.0188,-0.0181,-0.0137,-0.0132,-0.0126,-0.0047,-0.0045,0.001,0.0006,-0.0041,0.0007,0.0008,0.0077,0.0086,0.0108,0.017,0.0176,0.016,0.0163,0.0165,0.0167,0,0,0,0,0,0,0,-0.0192,-0.0185,-0.0134,-0.0136,-0.0129,-0.0086,-0.0077,-0.0034,0.0016,-0.0037,-0.0032,-0.0023,0.008,0.0103,0.0112,0.0178,0.016,0.0164,0.0167,0.0169,0.0297,0.0297,0,0,0,0,0,0,-0.0215,-0.019,-0.0137,-0.0131,-0.0159,-0.0086,-0.0076,-0.0071,0.0015,0.0028,-0.0024,-0.002,0.0095,0.0106,0.0117,0.015,0.0165,0.017,0.0172,0.0296,0.0297,0.0297,0,0,0,0,0,0,-0.0217,-0.0211,-0.0142,-0.0159,-0.0148,-0.0086,-0.0081,-0.007,-0.0049,0.0024,0.0038,-0.0016,0.0096,0.011,0.0157,0.0156,0.0172,0.0176,0.0295,0.0296,0.0297,0.0213,0,0,0,0,0,0,-0.0219,-0.0213,-0.0221,-0.0161,-0.0148,-0.0124,-0.0082,-0.0068,-0.0045,-0.004,0.0035,0.0048,0.0097,0.015,0.0162,0.0163,0.018,0.0295,0.0296,0.0297,0.0215,0.0211,0.0208,0,0,0,0,0,-0.0222,-0.0241,-0.0222,-0.0216,-0.016,-0.0125,-0.0114,-0.0066,-0.0046,-0.0044,0.0015,0.0046,0.0165,0.0154,0.0168,0.017,0.0294,0.0296,0.0297,0.0217,0.0212,0.0208,0,0,0,0,0,0,-0.0278,-0.0234,-0.0212,-0.0217,-0.0179,-0.0113,-0.0112,-0.0075,-0.0027,-0.0023,0.005,0.0067,0.0108,0.0153,0.0138,0.0213,0.0236,0.024,0.0171,0.0167,0.0163,0.0145,0.0184,0,0,0,0,0,-0.0295,-0.0297,-0.0243,-0.0249,-0.0235,-0.0174,-0.0155,-0.0122,-0.007,-0.0049,0.0007,0.007,0.0125,0.0154,0.0206,0.0242,0.0284,0.0256,0.0252,0.0248,0.0246,0.0307,0.0308,0.0301,0.0301,0.0301,0,0,-0.0319,-0.0296,-0.0297,-0.0261,-0.0228,-0.0214,-0.0161,-0.0142,-0.0122,-0.0043,-0.0005,0.0052,0.0131,0.0175,0.0198,0.0211,0.0271,0.025,0.0245,0.0245,0.0308,0.0309,0.0309,0.0302,0.0302,0.0302,0,0,-0.0372,-0.0348,-0.0366,-0.0336,-0.0297,-0.0255,-0.0254,-0.0192,-0.0158,-0.0114,-0.0048,0.0008,0.0086,0.0148,0.0188,0.0194,0.0244,0.021,0.0179,0.0238,0.0239,0.024,0.0281,0.0286,0.0212,0.0212,0.0212,0,-0.0405,-0.0412,-0.0366,-0.037,-0.0351,-0.0279,-0.0285,-0.0238,-0.0166,-0.0135,-0.0116,0.0017,0.0076,0.0147,0.0152,0.0184,0.0219,0.0185,0.023,0.0232,0.0235,0.0277,0.0284,0.0208,0.0208,0.0209,0.0209,0,-0.046,-0.0462,-0.0471,-0.0448,-0.0423,-0.0416,-0.0347,-0.0314,-0.0264,-0.0206,-0.0133,-0.0045,0.0037,0.0065,0.0111,0.0164,0.0182,0.0211,0.0234,0.023,0.0276,0.0284,0.0202,0.0204,0.0205,0.0206,0,0,-0.0542,-0.0517,-0.0521,-0.0519,-0.0461,-0.0448,-0.0412,-0.0353,-0.0325,-0.0245,-0.02,-0.0097,-0.0042,0.0008,0.0078,0.0133,0.0176,0.0171,0.0176,0.0196,0.0293,0.0349,0.0364,0.0209,0.021,0.0212,0.0313,0,-0.0598,-0.0633,-0.0592,-0.0606,-0.0612,-0.053,-0.0501,-0.0435,-0.0363,-0.03,-0.0191,-0.0125,-0.0063,-0.0027,0.0038,0.0149,0.0198,0.0146,0.0309,0.0313,0.035,0.0376,0.0423,0.0522,0.0322,0.0323,0.0324,0,-0.0661,-0.0676,-0.071,-0.068,-0.0674,-0.0663,-0.0598,-0.0561,-0.0446,-0.0389,-0.0295,-0.0203,-0.0094,-0.0054,0.0125,0.0087,0.0177,0.0256,0.0262,0.0351,0.0386,0.0499,0.0546,0.0705,0.0338,0.0337,0.0336,0,-0.0744,-0.075,-0.0782,-0.0772,-0.073,-0.0721,-0.069,-0.0594,-0.0559,-0.0444,-0.0402,-0.0256,-0.0181,-0.0044,0.0137,0.0127,0.0327,0.0337,0.0468,0.0472,0.0565,0.0576,0.0775,0.0444,0.0444,0.0444,0.0443,0,-0.0814,-0.0836,-0.0827,-0.0842,-0.0871,-0.0805,-0.0799,-0.0741,-0.0652,-0.0606,-0.0459,-0.0383,-0.0176,-0.0024,0.0123,0.0337,0.0323,0.047,0.0511,0.0538,0.0544,0.0729,0.0783,0.0448,0.0447,0.0446,0.0445,0,-0.0892,-0.0886,-0.0921,-0.0909,-0.0911,-0.0931,-0.089,-0.0874,-0.0779,-0.0714,-0.0681,-0.0476,-0.0261,-0.0047,0.0192,0.0322,0.062,0.0585,0.0597,0.0637,0.0896,0.0941,0.1167,0.1253,0.0739,0.0741,0.0743,0,-0.0932,-0.096,-0.099,-0.1023,-0.1022,-0.1036,-0.1039,-0.0956,-0.0924,-0.0757,-0.0727,-0.0507,-0.0315,0.0066,0.0341,0.0619,0.0727,0.0798,0.0792,0.0932,0.1013,0.1037,0.1094,0.0877,0.088,0.0882,0.0884,0,-0.1001,-0.101,-0.1046,-0.112,-0.1149,-0.1171,-0.116,-0.1152,-0.103,-0.0937,-0.0759,-0.0591,-0.0195,0.0184,0.0544,0.07,0.0923,0.0851,0.1009,0.1153,0.1182,0.1276,0.077,0.0904,0.0902,0.09,0.0899,0.0898,-0.1044,-0.1097,-0.1146,-0.1209,-0.1251,-0.1278,-0.1276,-0.122,-0.1146,-0.0958,-0.0793,-0.0491,0.0053,0.0596,0.0781,0.1173,0.1105,0.1275,0.132,0.1333,0.1422,0.095,0.1122,0.1121,0.112,0.112,0.1119,0,-0.1094,-0.1151,-0.1226,-0.1294,-0.1341,-0.134,-0.1329,-0.1279,-0.1167,-0.0948,-0.0723,-0.0111,0.042,0.0883,0.1463,0.165,0.1666,0.1721,0.1775,0.1812,0.1421,0.1434,0.1667,0.1667,0.1667,0.1666,0.1666,0.1666,-0.1123,-0.1208,-0.1249,-0.1344,-0.1386,-0.1406,-0.1389,-0.1281,-0.1113,-0.0726,-0.0367,-0.0064,0.0609,0.1569,0.2083,0.2098,0.2245,0.2206,0.2284,0.2023,0.1984,0.1948,0.1976,0.2319,0.2319,0.2667,0.267,0.2673]}],[{"header":{"parameterUnit":"m.s-1","parameterCategory":2,"la1":30.2991,"la2":30.254,"lo1":-89.0895,"lo2":-89.0444,"dy":0.0017,"dx":0.0017,"nx":28,"ny":28,"refTime":"2024-03-13T03:00:00:Z","depth":"2","parameterNumber":2,"parameterNumberName":"U-component_of_CURRENTS"},"data":[0,0,0,0,0,0,0,0,0,0,0,0,0,0,0,0,0,0,0,0,0,0,0,0,0,0,0,0,0,0,0,0,0,0,0,0,0,0,0,0,0,0,0,0,0,0,0,0,0,0,0,0,0,0,0,0,0,0,-0.2719,-0.272,0,-0.277,-0.277,-0.277,-0.2734,-0.2733,-0.2732,-0.273,-0.2718,-0.2719,-0.272,0,0,0,0,0,0,0,0,0,0,0,0,0,-0.2589,-0.2592,-0.2719,-0.272,-0.2721,-0.277,-0.277,-0.277,-0.2734,-0.2733,-0.2731,-0.273,-0.2718,-0.2719,-0.272,0,0,0,0,0,0,0,0,0,0,0,0,0,-0.264,-0.2592,-0.2719,-0.2712,-0.2712,-0.2769,-0.277,-0.277,-0.2735,-0.2733,-0.2731,-0.2729,-0.2717,-0.2719,-0.272,-0.2765,0,0,-0.2724,-0.2724,0,0,0,0,0,0,0,0,-0.2637,-0.2644,-0.2712,-0.2712,-0.2713,-0.2747,-0.272,-0.2767,-0.2735,-0.2722,-0.273,-0.2728,-0.2726,-0.2726,-0.2735,-0.2764,-0.2764,-0.2724,-0.2724,-0.2725,-0.2725,0,0,0,0,0,0,0,-0.2633,-0.2642,-0.2735,-0.2713,-0.2714,-0.2706,-0.271,-0.2729,-0.273,-0.2723,-0.2721,-0.2734,-0.2725,-0.2734,-0.2735,-0.2764,-0.2724,-0.2725,-0.2726,-0.2726,-0.2821,-0.2823,0,0,0,0,0,0,-0.2638,-0.2639,-0.2733,-0.2737,-0.2674,-0.271,-0.2715,-0.2735,-0.2731,-0.273,-0.2735,-0.2732,-0.2733,-0.2733,-0.2734,-0.2767,-0.2725,-0.2726,-0.2727,-0.2819,-0.2822,-0.2824,0,0,0,0,0,0,-0.2635,-0.2646,-0.2731,-0.2691,-0.2702,-0.2714,-0.2737,-0.2737,-0.2744,-0.2742,-0.2738,-0.2743,-0.2732,-0.2732,-0.2759,-0.2766,-0.2727,-0.2728,-0.2817,-0.282,-0.2823,-0.2845,0,0,0,0,0,0,-0.2631,-0.2645,-0.2658,-0.2692,-0.2705,-0.2771,-0.2739,-0.2739,-0.2757,-0.2753,-0.2747,-0.2744,-0.273,-0.2757,-0.276,-0.2767,-0.2729,-0.2815,-0.2819,-0.2822,-0.2842,-0.2848,-0.2854,0,0,0,0,0,-0.2626,-0.2654,-0.2658,-0.267,-0.2723,-0.2773,-0.2778,-0.2777,-0.2759,-0.2774,-0.2771,-0.2744,-0.278,-0.276,-0.2763,-0.2771,-0.2813,-0.2818,-0.2821,-0.284,-0.2847,-0.2853,0,0,0,0,0,0,-0.2602,-0.2655,-0.2659,-0.2701,-0.2737,-0.2768,-0.2783,-0.2786,-0.2798,-0.2789,-0.2774,-0.2772,-0.2796,-0.2794,-0.2773,-0.2812,-0.279,-0.2795,-0.2803,-0.281,-0.2816,-0.2799,-0.273,0,0,0,0,0,-0.2607,-0.2638,-0.2687,-0.2718,-0.2739,-0.2763,-0.2781,-0.2788,-0.2806,-0.2808,-0.2808,-0.281,-0.282,-0.2822,-0.2834,-0.2862,-0.2838,-0.287,-0.2876,-0.288,-0.2871,-0.2842,-0.2843,-0.2837,-0.2837,-0.2837,0,0,-0.2603,-0.2638,-0.2653,-0.2714,-0.2737,-0.2774,-0.2767,-0.2805,-0.2823,-0.2808,-0.2828,-0.2835,-0.2835,-0.2859,-0.2869,-0.2854,-0.2876,-0.2885,-0.2889,-0.2877,-0.2846,-0.2846,-0.2846,-0.2839,-0.2839,-0.2838,0,0,-0.2614,-0.2647,-0.2676,-0.2713,-0.2764,-0.2786,-0.28,-0.2843,-0.2847,-0.2886,-0.287,-0.2881,-0.2909,-0.29,-0.2899,-0.295,-0.291,-0.2961,-0.2968,-0.294,-0.2939,-0.2938,-0.2924,-0.2921,-0.2958,-0.2958,-0.2958,0,-0.2604,-0.265,-0.2691,-0.2732,-0.2757,-0.2792,-0.2824,-0.2848,-0.289,-0.2894,-0.2894,-0.2917,-0.2921,-0.2925,-0.2944,-0.2957,-0.2941,-0.2935,-0.2943,-0.2941,-0.294,-0.2925,-0.2922,-0.296,-0.296,-0.2959,-0.2959,0,-0.2637,-0.2674,-0.2697,-0.2754,-0.2791,-0.2828,-0.2873,-0.29,-0.2912,-0.2926,-0.2945,-0.2955,-0.2958,-0.297,-0.2974,-0.2971,-0.2965,-0.2953,-0.2915,-0.2941,-0.2926,-0.2921,-0.2962,-0.2962,-0.2961,-0.2961,0,0,-0.2601,-0.2699,-0.2703,-0.2729,-0.2804,-0.2835,-0.2875,-0.2913,-0.2926,-0.2956,-0.2963,-0.2983,-0.298,-0.2981,-0.2983,-0.2967,-0.2956,-0.2961,-0.2958,-0.2928,-0.2904,-0.2857,-0.2847,-0.294,-0.2939,-0.2939,-0.2903,0,-0.2605,-0.2671,-0.2723,-0.2773,-0.2808,-0.2856,-0.2891,-0.2929,-0.2955,-0.2978,-0.2975,-0.2992,-0.2986,-0.2993,-0.2975,-0.2971,-0.2945,-0.2967,-0.29,-0.2898,-0.2836,-0.284,-0.2624,-0.2569,-0.2899,-0.2898,-0.2897,0,-0.2608,-0.2653,-0.2705,-0.2778,-0.2798,-0.2831,-0.2878,-0.2917,-0.2957,-0.298,-0.2985,-0.2995,-0.2993,-0.2983,-0.2945,-0.2961,-0.2931,-0.2915,-0.2913,-0.2851,-0.2841,-0.2596,-0.2549,-0.289,-0.2891,-0.2891,-0.2892,0,-0.2544,-0.2633,-0.2667,-0.2695,-0.2789,-0.2807,-0.2846,-0.29,-0.2929,-0.2973,-0.2995,-0.2992,-0.2994,-0.2956,-0.2934,-0.294,-0.2886,-0.2884,-0.2803,-0.2801,-0.2593,-0.2572,-0.2828,-0.2828,-0.2828,-0.2828,-0.2829,0,-0.2521,-0.2543,-0.2639,-0.2657,-0.2687,-0.2767,-0.2797,-0.2842,-0.2905,-0.2928,-0.2979,-0.2987,-0.2986,-0.2964,-0.2932,-0.2856,-0.2873,-0.2796,-0.278,-0.26,-0.2582,-0.284,-0.2842,-0.2827,-0.2827,-0.2828,-0.2828,0,-0.2433,-0.2508,-0.254,-0.2629,-0.2657,-0.2667,-0.2758,-0.2783,-0.2861,-0.2892,-0.2907,-0.2974,-0.2954,-0.294,-0.2892,-0.2844,-0.2786,-0.2746,-0.2549,-0.251,-0.2723,-0.2727,-0.2656,-0.2654,-0.2652,-0.2651,-0.2649,0,-0.2392,-0.2403,-0.2485,-0.2503,-0.2539,-0.2584,-0.262,-0.273,-0.2763,-0.2866,-0.2869,-0.2897,-0.2876,-0.2814,-0.2738,-0.2657,-0.2725,-0.242,-0.2386,-0.271,-0.2701,-0.2708,-0.2715,-0.2126,-0.2121,-0.2116,-0.2113,0,-0.2288,-0.2316,-0.2347,-0.2381,-0.242,-0.2458,-0.2518,-0.2546,-0.2668,-0.2709,-0.2745,-0.2744,-0.2718,-0.255,-0.2477,-0.2399,-0.2424,-0.2329,-0.2678,-0.2221,-0.2211,-0.2204,-0.2226,-0.2073,-0.2077,-0.208,-0.2082,-0.2084,-0.2188,-0.2177,-0.2218,-0.2233,-0.228,-0.2291,-0.2266,-0.2352,-0.2378,-0.2387,-0.2512,-0.2435,-0.2444,-0.222,-0.2123,-0.2043,-0.2202,-0.2088,-0.21,-0.2117,-0.208,-0.2069,-0.1897,-0.19,-0.1903,-0.1905,-0.1907,0,-0.2046,-0.2056,-0.2068,-0.2078,-0.2054,-0.213,-0.2165,-0.2108,-0.2076,-0.2126,-0.2116,-0.1917,-0.1829,-0.1843,-0.1666,-0.1652,-0.162,-0.1581,-0.1527,-0.1567,-0.1603,-0.1538,-0.1212,-0.1211,-0.1209,-0.1207,0,0,-0.1974,-0.1931,-0.1935,-0.1837,-0.1844,-0.1753,-0.1731,-0.1679,-0.1668,-0.1572,-0.1535,-0.1671,-0.1759,-0.1472,-0.1423,-0.1285,-0.1404,-0.122,-0.1771,-0.1743,-0.1776,-0.1885,-0.183,0,0,0,0,0]},{"header":{"parameterUnit":"m.s-1","parameterCategory":2,"la1":30.2991,"la2":30.254,"lo1":-89.0895,"lo2":-89.0444,"dy":0.0017,"dx":0.0017,"nx":28,"ny":28,"refTime":"2024-03-13T03:00:00:Z","depth":"2","parameterNumber":3,"parameterNumberName":"V-component_of_CURRENTS"},"data":[0,0,0,0,0,0,0,0,0,0,0,0,0,0,0,0,0,0,0,0,0,0,0,0,0,0,0,0,0,0,0,0,0,0,0,0,0,0,0,0,0,0,0,0,0,0,0,0,0,0,0,0,0,0,0,0,0,0,-0.0211,-0.021,0,-0.0115,-0.0114,-0.0112,-0.0043,-0.0042,-0.0042,-0.0042,0.0075,0.0078,0.008,0,0,0,0,0,0,0,0,0,0,0,0,0,-0.0274,-0.0274,-0.0211,-0.021,-0.0209,-0.0115,-0.0114,-0.0112,-0.0043,-0.0042,-0.0042,-0.0041,0.0074,0.0077,0.008,0,0,0,0,0,0,0,0,0,0,0,0,0,-0.0218,-0.0274,-0.0212,-0.0165,-0.016,-0.0115,-0.0114,-0.0112,-0.0043,-0.0042,-0.0042,-0.0041,0.0073,0.0077,0.0081,0.0093,0,0,0.0093,0.0095,0,0,0,0,0,0,0,0,-0.0221,-0.0215,-0.0173,-0.0168,-0.0162,-0.0092,-0.0093,-0.0043,-0.0043,-0.0085,-0.0042,-0.0041,0.0019,0.0028,0.0047,0.0099,0.0104,0.0094,0.0096,0.0098,0.0099,0,0,0,0,0,0,0,-0.0225,-0.0219,-0.0171,-0.0172,-0.0165,-0.0128,-0.0119,-0.0083,-0.0036,-0.0082,-0.0077,-0.0069,0.0023,0.0043,0.005,0.0106,0.0094,0.0097,0.01,0.0101,0.0196,0.0196,0,0,0,0,0,0,-0.0245,-0.0223,-0.0174,-0.0169,-0.0193,-0.0127,-0.0118,-0.0114,-0.0037,-0.0025,-0.007,-0.0066,0.0036,0.0045,0.0054,0.0083,0.0098,0.0102,0.0104,0.0196,0.0196,0.0196,0,0,0,0,0,0,-0.0246,-0.0241,-0.0178,-0.0195,-0.0184,-0.0128,-0.0123,-0.0112,-0.0093,-0.0028,-0.0016,-0.0063,0.0036,0.0049,0.0086,0.0088,0.0103,0.0107,0.0196,0.0196,0.0196,0.0135,0,0,0,0,0,0,-0.0249,-0.0243,-0.025,-0.0196,-0.0184,-0.0163,-0.0123,-0.0111,-0.009,-0.0085,-0.0018,-0.0006,0.0038,0.008,0.009,0.0094,0.011,0.0196,0.0196,0.0196,0.0136,0.0133,0.0129,0,0,0,0,0,-0.0251,-0.0269,-0.0251,-0.0246,-0.0195,-0.0164,-0.0155,-0.011,-0.0091,-0.0089,-0.0039,-0.0008,0.0089,0.0083,0.0095,0.01,0.0196,0.0196,0.0196,0.0138,0.0133,0.0129,0,0,0,0,0,0,-0.0303,-0.0262,-0.0242,-0.0247,-0.0212,-0.0153,-0.0152,-0.0119,-0.0078,-0.0073,-0.0009,0.0006,0.0039,0.0076,0.0069,0.0128,0.0148,0.0151,0.01,0.0096,0.0092,0.0079,0.0114,0,0,0,0,0,-0.0319,-0.0321,-0.0271,-0.0277,-0.0264,-0.0209,-0.0192,-0.0161,-0.0117,-0.0098,-0.0048,0.0004,0.005,0.0076,0.0118,0.0148,0.0187,0.016,0.0156,0.0153,0.0152,0.0211,0.0213,0.0197,0.0197,0.0197,0,0,-0.0341,-0.032,-0.032,-0.0288,-0.0258,-0.0246,-0.0197,-0.018,-0.0162,-0.0093,-0.006,-0.0012,0.0053,0.009,0.0109,0.0122,0.0177,0.0153,0.015,0.0151,0.0212,0.0213,0.0214,0.0197,0.0197,0.0197,0,0,-0.039,-0.0367,-0.0385,-0.0358,-0.0322,-0.0284,-0.0283,-0.0227,-0.0196,-0.016,-0.0102,-0.0053,0.0011,0.0066,0.0101,0.0101,0.0151,0.0112,0.009,0.0147,0.0149,0.0151,0.0195,0.0201,0.0116,0.0115,0.0115,0,-0.042,-0.0426,-0.0385,-0.0389,-0.0372,-0.0306,-0.0312,-0.027,-0.0206,-0.0177,-0.0161,-0.0048,0.0003,0.0067,0.007,0.0093,0.0128,0.0099,0.0142,0.0145,0.0148,0.0192,0.02,0.0112,0.0113,0.0113,0.0113,0,-0.0472,-0.0473,-0.0482,-0.0461,-0.0438,-0.0433,-0.037,-0.034,-0.0295,-0.0242,-0.0177,-0.0101,-0.003,-0.0005,0.0034,0.0085,0.0102,0.0124,0.0149,0.0146,0.0193,0.0202,0.0108,0.0109,0.011,0.0111,0,0,-0.0547,-0.0525,-0.0528,-0.0525,-0.0473,-0.0461,-0.0429,-0.0375,-0.0347,-0.0276,-0.0232,-0.0144,-0.0093,-0.005,0.0012,0.0065,0.0116,0.0098,0.0103,0.0134,0.0233,0.0278,0.0293,0.0144,0.0145,0.0147,0.0254,0,-0.0599,-0.0632,-0.0594,-0.0607,-0.0612,-0.0536,-0.051,-0.0449,-0.0383,-0.0323,-0.0223,-0.0164,-0.0111,-0.0078,-0.0014,0.0088,0.0139,0.0084,0.0238,0.0243,0.0278,0.0305,0.0263,0.0358,0.0263,0.0265,0.0266,0,-0.0658,-0.0671,-0.0702,-0.0673,-0.0667,-0.0658,-0.0597,-0.0562,-0.0454,-0.0401,-0.0313,-0.023,-0.0126,-0.0093,0.0079,0.004,0.0126,0.02,0.0206,0.0278,0.0306,0.035,0.0379,0.0282,0.0281,0.0279,0.0278,0,-0.0734,-0.0739,-0.0768,-0.0759,-0.0719,-0.071,-0.0682,-0.0592,-0.0558,-0.0449,-0.0409,-0.0271,-0.02,-0.0071,0.0098,0.0086,0.0281,0.0286,0.0406,0.0409,0.042,0.0423,0.0392,0.0392,0.0392,0.0392,0.0392,0,-0.0799,-0.0818,-0.081,-0.0823,-0.0849,-0.0788,-0.0781,-0.0727,-0.0642,-0.0598,-0.046,-0.0389,-0.0193,-0.0047,0.0089,0.029,0.0281,0.0411,0.0448,0.0397,0.0396,0.0367,0.0363,0.0396,0.0395,0.0394,0.0393,0,-0.0871,-0.0866,-0.0897,-0.0885,-0.0888,-0.0906,-0.0867,-0.085,-0.076,-0.0698,-0.0667,-0.0472,-0.0269,-0.0066,0.0161,0.0282,0.0462,0.0527,0.0452,0.0479,0.0547,0.0538,0.0667,0.0669,0.0672,0.0673,0.0675,0,-0.091,-0.0935,-0.0963,-0.0994,-0.0994,-0.1006,-0.1008,-0.0929,-0.0897,-0.074,-0.0711,-0.0501,-0.0326,0.0036,0.0285,0.0544,0.0533,0.0637,0.0614,0.0556,0.0579,0.0567,0.0555,0.0596,0.0597,0.0598,0.0598,0,-0.0975,-0.0984,-0.1016,-0.1087,-0.1115,-0.1134,-0.1123,-0.1114,-0.0998,-0.0913,-0.075,-0.0597,-0.0229,0.0079,0.0416,0.055,0.0596,0.066,0.0638,0.0535,0.05,0.0519,0.0508,0.0604,0.0603,0.0603,0.0603,0.0603,-0.1017,-0.1066,-0.1112,-0.1173,-0.1212,-0.1238,-0.1238,-0.1185,-0.1118,-0.0946,-0.0795,-0.0533,-0.0228,0.0264,0.0499,0.0698,0.0694,0.0728,0.0722,0.0716,0.069,0.0661,0.079,0.0791,0.0791,0.0792,0.0792,0,-0.1067,-0.112,-0.119,-0.1256,-0.1301,-0.1301,-0.129,-0.1242,-0.1144,-0.0953,-0.0753,-0.0418,-0.006,0.0239,0.0574,0.0782,0.074,0.0791,0.07,0.0694,0.0688,0.0657,0.0751,0.0752,0.0752,0.0753,0,0,-0.1097,-0.1176,-0.1214,-0.1306,-0.1349,-0.137,-0.1356,-0.1255,-0.1107,-0.0898,-0.0695,-0.0408,-0.0042,0.0189,0.045,0.0616,0.0592,0.0613,0.0624,0.0481,0.0473,0.0632,0.0576,0,0,0,0,0]}],[{"header":{"parameterUnit":"m.s-1","parameterCategory":2,"la1":30.2991,"la2":30.254,"lo1":-89.0895,"lo2":-89.0444,"dy":0.0017,"dx":0.0017,"nx":28,"ny":28,"refTime":"2024-03-13T03:00:00:Z","depth":"4","parameterNumber":2,"parameterNumberName":"U-component_of_CURRENTS"},"data":[0,0,0,0,0,0,0,0,0,0,0,0,0,0,0,0,0,0,0,0,0,0,0,0,0,0,0,0,0,0,0,0,0,0,0,0,0,0,0,0,0,0,0,0,0,0,0,0,0,0,0,0,0,0,0,0,0,0,-0.1859,-0.186,0,-0.1931,-0.1932,-0.1932,-0.1963,-0.1963,-0.1963,-0.1963,-0.1998,-0.1998,-0.1999,0,0,0,0,0,0,0,0,0,0,0,0,0,-0.1725,-0.1727,-0.1858,-0.186,-0.1861,-0.1931,-0.1932,-0.1932,-0.1963,-0.1963,-0.1963,-0.1964,-0.1998,-0.1998,-0.1999,0,0,0,0,0,0,0,0,0,0,0,0,0,-0.1784,-0.1727,-0.1858,-0.1888,-0.1892,-0.1931,-0.1932,-0.1932,-0.1963,-0.1963,-0.1963,-0.1964,-0.1997,-0.1998,-0.1999,-0.1998,0,0,-0.2002,-0.2003,0,0,0,0,0,0,0,0,-0.1781,-0.1789,-0.1882,-0.1886,-0.189,-0.1942,-0.1897,-0.1954,-0.1962,-0.1931,-0.1963,-0.1964,-0.1978,-0.1981,-0.1988,-0.1999,-0.2001,-0.2002,-0.2003,-0.2004,-0.2004,0,0,0,0,0,0,0,-0.1777,-0.1786,-0.1883,-0.1884,-0.1889,-0.1891,-0.1899,-0.1908,-0.1947,-0.1934,-0.1937,-0.1952,-0.1979,-0.1987,-0.1989,-0.2001,-0.2002,-0.2003,-0.2004,-0.2004,-0.2073,-0.2074,0,0,0,0,0,0,-0.1778,-0.1782,-0.1881,-0.1885,-0.184,-0.1893,-0.1902,-0.1921,-0.1948,-0.1954,-0.1952,-0.1953,-0.1985,-0.1988,-0.199,-0.2062,-0.2004,-0.2004,-0.2005,-0.2072,-0.2073,-0.2074,0,0,0,0,0,0,-0.1775,-0.1786,-0.1878,-0.1838,-0.1851,-0.1896,-0.1916,-0.1923,-0.1964,-0.1963,-0.1968,-0.1991,-0.1985,-0.1989,-0.2022,-0.2061,-0.2005,-0.2006,-0.207,-0.2072,-0.2074,-0.2159,0,0,0,0,0,0,-0.177,-0.1784,-0.1811,-0.1839,-0.1853,-0.1925,-0.1917,-0.1924,-0.1973,-0.1977,-0.1998,-0.1999,-0.1986,-0.2021,-0.2023,-0.2061,-0.2007,-0.2069,-0.2071,-0.2073,-0.2155,-0.2164,-0.2171,0,0,0,0,0,-0.1765,-0.1797,-0.1812,-0.1825,-0.1884,-0.1927,-0.1935,-0.1964,-0.1975,-0.2001,-0.2011,-0.2,-0.2037,-0.2023,-0.2025,-0.2064,-0.2067,-0.207,-0.2073,-0.2151,-0.2162,-0.2171,0,0,0,0,0,0,-0.1754,-0.1804,-0.1821,-0.1867,-0.1908,-0.1935,-0.1967,-0.1986,-0.2016,-0.2026,-0.2018,-0.2021,-0.2064,-0.205,-0.2035,-0.2089,-0.205,-0.2053,-0.2108,-0.2118,-0.2127,-0.2117,-0.2007,0,0,0,0,0,-0.1765,-0.1801,-0.1846,-0.1886,-0.191,-0.1945,-0.1973,-0.1996,-0.2021,-0.2037,-0.2053,-0.2062,-0.2071,-0.2085,-0.2091,-0.2124,-0.2093,-0.2148,-0.2157,-0.2164,-0.2157,-0.2139,-0.2145,-0.2083,-0.2083,-0.2083,0,0,-0.1772,-0.1805,-0.1827,-0.1886,-0.1919,-0.1958,-0.1963,-0.2018,-0.2052,-0.2034,-0.2091,-0.2097,-0.2086,-0.2121,-0.2139,-0.212,-0.2169,-0.2167,-0.2174,-0.2163,-0.2143,-0.2149,-0.2154,-0.2085,-0.2085,-0.2084,0,0,-0.179,-0.1837,-0.1869,-0.1908,-0.197,-0.1992,-0.2018,-0.207,-0.2099,-0.2149,-0.2142,-0.2169,-0.2196,-0.2192,-0.219,-0.2246,-0.2213,-0.2259,-0.2297,-0.2281,-0.2285,-0.2289,-0.2272,-0.2273,-0.2263,-0.2263,-0.2263,0,-0.1798,-0.1844,-0.1886,-0.1927,-0.1962,-0.2012,-0.2052,-0.209,-0.2147,-0.2165,-0.218,-0.2215,-0.2222,-0.2239,-0.2266,-0.2266,-0.2248,-0.2263,-0.2291,-0.2294,-0.2296,-0.2277,-0.2277,-0.2268,-0.2267,-0.2267,-0.2266,0,-0.1828,-0.188,-0.1906,-0.1969,-0.2014,-0.2062,-0.2117,-0.2166,-0.2209,-0.2234,-0.2283,-0.2293,-0.2305,-0.2325,-0.2318,-0.2344,-0.2325,-0.2304,-0.2266,-0.2307,-0.2285,-0.2284,-0.2274,-0.2272,-0.2271,-0.227,0,0,-0.1799,-0.1905,-0.1916,-0.1954,-0.2042,-0.2077,-0.2143,-0.22,-0.2237,-0.2296,-0.233,-0.2368,-0.2377,-0.2375,-0.2377,-0.2378,-0.24,-0.2361,-0.2358,-0.2344,-0.2366,-0.2228,-0.2213,-0.2387,-0.2387,-0.2387,-0.235,0,-0.1809,-0.1883,-0.1937,-0.2012,-0.2053,-0.2121,-0.2173,-0.2233,-0.2284,-0.2332,-0.2354,-0.2389,-0.2394,-0.2413,-0.2417,-0.2404,-0.2398,-0.2412,-0.2327,-0.2325,-0.2196,-0.2207,-0.2387,-0.2348,-0.2348,-0.2348,-0.2347,0,-0.1808,-0.1861,-0.1935,-0.203,-0.2055,-0.2109,-0.2193,-0.2247,-0.2317,-0.2357,-0.2393,-0.2411,-0.2439,-0.2434,-0.242,-0.2431,-0.2406,-0.239,-0.2387,-0.2221,-0.2182,-0.2293,-0.2345,-0.2345,-0.2345,-0.2345,-0.2345,0,-0.1746,-0.1855,-0.1913,-0.1949,-0.2064,-0.211,-0.2171,-0.2252,-0.2294,-0.2372,-0.2402,-0.2431,-0.245,-0.243,-0.2412,-0.2421,-0.2379,-0.2376,-0.2222,-0.2212,-0.2312,-0.2308,-0.2346,-0.2346,-0.2347,-0.2347,-0.2347,0,-0.1713,-0.1763,-0.1896,-0.1927,-0.1992,-0.2087,-0.2154,-0.2218,-0.2301,-0.2331,-0.2408,-0.2416,-0.2452,-0.2435,-0.2411,-0.2303,-0.237,-0.2217,-0.2185,-0.2352,-0.2353,-0.2312,-0.2309,-0.2345,-0.2346,-0.2346,-0.2346,0,-0.1625,-0.172,-0.179,-0.1922,-0.1967,-0.2011,-0.2137,-0.2174,-0.2273,-0.2313,-0.2338,-0.2409,-0.2384,-0.2388,-0.2353,-0.2278,-0.2204,-0.2147,-0.2327,-0.2308,-0.2054,-0.2056,-0.1968,-0.1962,-0.1958,-0.1954,-0.1951,0,-0.1582,-0.1614,-0.1761,-0.1804,-0.1869,-0.1958,-0.2012,-0.2139,-0.2171,-0.2277,-0.2271,-0.2302,-0.2322,-0.2152,-0.2187,-0.2107,-0.2082,-0.2036,-0.2044,-0.2033,-0.2012,-0.2021,-0.2029,-0.1944,-0.1942,-0.1941,-0.194,0,-0.1487,-0.1556,-0.1615,-0.1699,-0.1775,-0.1836,-0.1921,-0.1931,-0.2056,-0.2173,-0.2132,-0.2107,-0.2075,-0.2042,-0.199,-0.1939,-0.2064,-0.1988,-0.1998,-0.2005,-0.2003,-0.1989,-0.2002,-0.1924,-0.1927,-0.1928,-0.1929,0,-0.1413,-0.1426,-0.1512,-0.1566,-0.1656,-0.1671,-0.1741,-0.1774,-0.1822,-0.1952,-0.1931,-0.1969,-0.2046,-0.1952,-0.1906,-0.1843,-0.1819,-0.176,-0.1781,-0.1799,-0.1761,-0.1734,-0.1532,0,0,0,0,0,-0.1325,-0.1325,-0.1369,-0.1419,-0.1498,-0.1536,-0.1656,-0.1731,-0.1863,-0.1782,-0.1849,-0.181,-0.1751,-0.178,-0.1675,-0.1829,-0.1825,-0.1701,-0.177,-0.1837,-0.1855,-0.1826,0,0,0,0,0,0,-0.127,-0.1306,-0.1315,-0.1274,-0.1275,-0.1333,-0.14,-0.1496,-0.1463,-0.1606,-0.1579,-0.1689,-0.1654,-0.1762,-0.1627,-0.1635,-0.164,-0.1743,-0.1738,-0.1826,-0.1843,-0.1858,-0.1834,0,0,0,0,0]},{"header":{"parameterUnit":"m.s-1","parameterCategory":2,"la1":30.2991,"la2":30.254,"lo1":-89.0895,"lo2":-89.0444,"dy":0.0017,"dx":0.0017,"nx":28,"ny":28,"refTime":"2024-03-13T03:00:00:Z","depth":"4","parameterNumber":3,"parameterNumberName":"V-component_of_CURRENTS"},"data":[0,0,0,0,0,0,0,0,0,0,0,0,0,0,0,0,0,0,0,0,0,0,0,0,0,0,0,0,0,0,0,0,0,0,0,0,0,0,0,0,0,0,0,0,0,0,0,0,0,0,0,0,0,0,0,0,0,0,-0.0185,-0.0184,0,-0.0126,-0.0126,-0.0125,-0.0078,-0.0077,-0.0077,-0.0077,-0.0001,0.0001,0.0003,0,0,0,0,0,0,0,0,0,0,0,0,0,-0.0221,-0.0221,-0.0185,-0.0184,-0.0183,-0.0126,-0.0126,-0.0125,-0.0078,-0.0077,-0.0077,-0.0076,-0.0001,0.0001,0.0003,0,0,0,0,0,0,0,0,0,0,0,0,0,-0.0188,-0.0221,-0.0185,-0.0154,-0.0151,-0.0127,-0.0125,-0.0124,-0.0078,-0.0077,-0.0077,-0.0076,-0.0002,0.0001,0.0003,0.0007,0,0,0.0011,0.0012,0,0,0,0,0,0,0,0,-0.019,-0.0186,-0.0159,-0.0156,-0.0152,-0.011,-0.0111,-0.008,-0.0078,-0.0104,-0.0077,-0.0076,-0.0037,-0.0031,-0.002,0.0011,0.0014,0.0011,0.0012,0.0013,0.0014,0,0,0,0,0,0,0,-0.0192,-0.0188,-0.016,-0.0159,-0.0154,-0.0131,-0.0126,-0.0104,-0.0073,-0.0102,-0.0099,-0.0094,-0.0034,-0.0023,-0.0018,0.0015,0.0011,0.0013,0.0015,0.0016,0.0056,0.0056,0,0,0,0,0,0,-0.0204,-0.0191,-0.0162,-0.0159,-0.0171,-0.0132,-0.0126,-0.0123,-0.0074,-0.0066,-0.0095,-0.0092,-0.0027,-0.0021,-0.0015,-0.0,0.0013,0.0016,0.0017,0.0057,0.0056,0.0056,0,0,0,0,0,0,-0.0205,-0.0202,-0.0165,-0.0174,-0.0168,-0.0132,-0.0129,-0.0122,-0.0112,-0.0069,-0.006,-0.0092,-0.0027,-0.0019,-0.0001,0.0003,0.0017,0.0019,0.0057,0.0056,0.0056,0.0025,0,0,0,0,0,0,-0.0206,-0.0203,-0.021,-0.0175,-0.0168,-0.0158,-0.013,-0.0122,-0.011,-0.0106,-0.0063,-0.0056,-0.0026,-0.0005,0.0002,0.0007,0.0021,0.0058,0.0057,0.0056,0.0027,0.0024,0.0021,0,0,0,0,0,-0.0208,-0.0222,-0.0211,-0.0207,-0.0177,-0.0159,-0.0154,-0.0125,-0.0111,-0.0112,-0.0082,-0.0057,-0.0005,-0.0003,0.0005,0.001,0.0058,0.0057,0.0056,0.0028,0.0024,0.0021,0,0,0,0,0,0,-0.0242,-0.0217,-0.0204,-0.021,-0.019,-0.0152,-0.0154,-0.0132,-0.0109,-0.0107,-0.0063,-0.0053,-0.0037,-0.0014,-0.0014,0.0018,0.0031,0.0031,0.0007,0.0003,0.0001,-0.0003,0.0023,0,0,0,0,0,-0.0254,-0.0258,-0.0227,-0.0233,-0.0226,-0.0191,-0.0182,-0.0162,-0.0135,-0.0124,-0.0092,-0.0062,-0.0035,-0.0018,0.0004,0.0022,0.0055,0.0029,0.0026,0.0024,0.0025,0.0078,0.0081,0.0052,0.0052,0.0052,0,0,-0.0269,-0.0257,-0.0259,-0.0241,-0.0224,-0.0219,-0.0184,-0.0177,-0.0166,-0.0121,-0.0104,-0.0075,-0.0036,-0.0015,-0.0005,0.0006,0.0048,0.0023,0.002,0.0023,0.0078,0.0081,0.0083,0.0052,0.0052,0.0052,0,0,-0.0305,-0.0292,-0.0307,-0.0292,-0.0272,-0.0248,-0.0249,-0.0214,-0.0194,-0.0176,-0.0138,-0.0106,-0.0073,-0.0033,-0.0011,-0.0019,0.0025,-0.0017,-0.0025,0.0027,0.003,0.0033,0.0075,0.0082,-0.0011,-0.0011,-0.0011,0,-0.0326,-0.0334,-0.0309,-0.0315,-0.0306,-0.0264,-0.0272,-0.0245,-0.0208,-0.0188,-0.018,-0.011,-0.0078,-0.0032,-0.0034,-0.0022,0.0007,-0.0013,0.0025,0.0029,0.0033,0.0075,0.0083,-0.0013,-0.0013,-0.0013,-0.0012,0,-0.0364,-0.037,-0.0378,-0.0369,-0.0358,-0.0358,-0.0318,-0.0301,-0.0273,-0.0236,-0.0194,-0.0144,-0.0097,-0.0083,-0.0059,-0.0015,-0.0003,0.001,0.0036,0.0034,0.0078,0.0087,-0.0015,-0.0015,-0.0014,-0.0014,0,0,-0.0412,-0.0407,-0.0411,-0.0413,-0.0385,-0.038,-0.0362,-0.0326,-0.0307,-0.0262,-0.0227,-0.0171,-0.0133,-0.0106,-0.0064,-0.0016,0.0037,0.0005,0.0009,0.005,0.0146,0.0134,0.0143,0.0058,0.006,0.0061,0.0164,0,-0.0449,-0.048,-0.0459,-0.0476,-0.0483,-0.0436,-0.0421,-0.0381,-0.0336,-0.0293,-0.0219,-0.0179,-0.0144,-0.0121,-0.0065,0.0012,0.0061,0.0008,0.0138,0.0142,0.0136,0.0154,0.0066,0.0171,0.0173,0.0175,0.0176,0,-0.0489,-0.0504,-0.0535,-0.0523,-0.0521,-0.0523,-0.0485,-0.0464,-0.0385,-0.0347,-0.028,-0.0221,-0.0136,-0.0115,0.0029,-0.0008,0.0062,0.0122,0.0127,0.0135,0.0148,0.0175,0.0194,0.0192,0.0191,0.019,0.0189,0,-0.0536,-0.055,-0.058,-0.0577,-0.056,-0.0562,-0.0548,-0.0486,-0.0463,-0.0381,-0.035,-0.0239,-0.0182,-0.0077,0.0054,0.0042,0.021,0.0211,0.0268,0.0268,0.0262,0.0257,0.0306,0.0306,0.0306,0.0306,0.0305,0,-0.0572,-0.0594,-0.061,-0.0624,-0.0654,-0.0617,-0.0621,-0.0585,-0.0525,-0.0493,-0.0387,-0.0332,-0.017,-0.0051,0.0055,0.0197,0.0217,0.0273,0.0298,0.0244,0.0237,0.0269,0.0263,0.031,0.0309,0.0308,0.0307,0,-0.061,-0.0621,-0.0657,-0.0668,-0.0679,-0.0701,-0.069,-0.0679,-0.0615,-0.057,-0.0546,-0.039,-0.0232,-0.0068,0.012,0.0195,0.0329,0.0372,0.0305,0.0324,0.035,0.0341,0.0441,0.0441,0.0442,0.0442,0.0442,0,-0.0629,-0.0654,-0.0706,-0.0742,-0.0755,-0.078,-0.079,-0.074,-0.0716,-0.0603,-0.0577,-0.0416,-0.03,-0.003,0.013,0.0343,0.0363,0.0425,0.0383,0.0351,0.0366,0.0357,0.0348,0.0443,0.0443,0.0443,0.0443,0,-0.066,-0.0686,-0.0719,-0.08,-0.0839,-0.0867,-0.0872,-0.0859,-0.0779,-0.0729,-0.0585,-0.043,-0.0243,-0.0032,0.0143,0.0287,0.038,0.0429,0.0429,0.0391,0.0356,0.0368,0.0358,0.0445,0.0445,0.0445,0.0444,0,-0.0682,-0.0723,-0.0779,-0.084,-0.0901,-0.0928,-0.0926,-0.0871,-0.0831,-0.0693,-0.0649,-0.0434,-0.0299,-0.006,0.0097,0.0247,0.0268,0.0291,0.0298,0.0298,0.0221,0.0153,0.021,0,0,0,0,0,-0.0697,-0.0745,-0.0812,-0.0877,-0.0936,-0.0964,-0.0962,-0.0936,-0.0861,-0.0769,-0.0701,-0.0523,-0.0257,-0.0127,0.002,0.0078,0.0273,0.0251,0.0298,0.0454,0.0452,0.0384,0,0,0,0,0,0,-0.0712,-0.078,-0.0812,-0.0888,-0.0936,-0.0986,-0.0986,-0.094,-0.0864,-0.0772,-0.062,-0.0517,-0.025,-0.0344,0.0014,0.0062,0.0104,0.0389,0.0391,0.0455,0.0453,0.0452,0.0381,0,0,0,0,0]}]]